Location: Le?niaki
(50.5210°N, 19.2957°E)
Time: 04:25:38
(UTC+00:00)

Daily predictions for brighter satellites

Satellite Brightness Start Highest point End
(mag) Time Altitude Azimuth Time Altitude Azimuth Time Altitude Azimuth
COSMOS 2455 4.5 02:23:49 28° ESE 02:23:49 28° ESE 02:26:36 10° SE
ATLAS 3B R/B 4.2 02:27:10 31° N 02:27:10 31° N 02:33:36 10° ENE
Cosmos 2360 Rocket 4.3 02:27:40 20° NNE 02:27:55 20° NE 02:32:00 10° E
Cosmos 2333 Rocket 4.0 02:28:57 26° NE 02:28:57 26° NE 02:33:42 10° E
ACS3 Solar Sail 4.2 02:28:27 10° N 02:28:40 11° N 02:28:40 11° N
ADEOS Rocket 4.5 02:36:14 10° N 02:40:26 35° N 02:40:26 35° N
Cosmos 2219 Rocket 4.3 02:44:06 17° NNE 02:45:18 18° NNE 02:49:08 10° ENE
Cosmos 2322 Rocket 3.8 02:50:37 26° NNE 02:51:41 28° NE 02:56:31 10° E
USA 59 Rocket 2.4 03:08:36 17° SSE 03:08:36 17° SSE 03:09:50 10° SE
Cosmos 1937 Rocket 4.3 03:09:18 47° ESE 03:09:18 47° ESE 03:13:06 10° SE
Cosmos 1833 Rocket 4.5 03:13:28 20° N 03:13:28 20° N 03:15:26 10° NNE
NOSS 3-1 (A) 4.2 03:09:52 48° N 03:11:37 60° NE 03:19:58 10° ESE
Aureole 1 Rocket 4.2 03:13:02 71° SSW 03:13:02 71° SSW 03:19:55 10° SSE
COSMOS 2406 4.2 03:13:03 16° S 03:17:18 44° ESE 03:22:40 10° NE
SL-16 R/B 2.6 03:19:10 52° NNE 03:20:04 59° NE 03:25:39 10° SE
Cosmos 2082 Rocket 2.1 03:23:08 80° ENE 03:23:08 80° ENE 03:28:31 10° NNE
SKYMED 2 4.5 03:19:28 10° SE 03:23:02 47° E 03:23:02 47° E
USA 234 3.5 03:21:32 10° ENE 03:27:52 53° N 03:28:36 50° NNW
SeaSat 1 4.0 03:25:49 10° NNE 03:27:52 24° N 03:27:52 24° N
CZ-2C R/B 4.3 03:32:34 10° N 03:34:03 19° N 03:34:03 19° N
Helios 1A Rocket 4.0 03:40:04 10° SE 03:42:22 34° ESE 03:42:22 34° ESE
Cosmos 2278 3.8 03:42:22 45° NNW 03:44:09 74° ENE 03:49:48 10° SE
FengYun 1-2 T 4.2 03:42:21 10° NNE 03:48:03 89° W 03:53:43 10° SSW
Cosmos 2026 Rocket 4.4 03:43:44 10° S 03:49:40 61° E 03:55:41 10° NNE
Celestis-02/Orion 38 4.4 03:45:35 10° NNE 03:50:40 79° WNW 03:51:36 60° SW
SL-4 R/B 2.8 03:54:50 38° E 03:54:50 38° E 03:56:55 10° E
NOSS 3-1 (C) 4.1 03:52:30 45° WNW 03:54:40 60° SW 04:03:15 10° SSE
Cosmos 1726 Rocket 4.0 04:01:10 44° SSW 04:01:10 44° SSW 04:04:10 10° S
Cosmos 841 Rocket 3.3 04:00:24 37° SW 04:02:30 73° WNW 04:07:47 10° NNE
SJ-11-01 4.1 04:00:14 10° N 04:04:54 65° WNW 04:07:06 30° SW
COSMOS 2455 3.6 04:07:00 32° SW 04:07:00 32° SW 04:11:34 10° S
Cosmos 2360 Rocket 2.3 04:09:26 24° NNW 04:12:54 74° ENE 04:18:31 10° SE
Cosmos 2333 Rocket 2.1 04:11:00 31° NW 04:13:53 80° WSW 04:19:38 10° SSE
Cosmos 489 Rocket 4.4 04:09:57 10° SW 04:16:12 67° WNW 04:22:28 10° NNE
Cosmos 1092 Rocket 4.0 04:10:07 10° S 04:16:23 83° E 04:22:38 10° N
Cosmos 1428 Rocket 4.4 04:12:21 10° SSW 04:18:31 62° WNW 04:24:46 10° N
Nadezhda 4 Rocket 4.1 04:13:06 10° SSW 04:19:14 53° WNW 04:25:22 10° N
ATLAS 3B R/B 3.8 04:14:24 20° NW 04:19:35 43° NNE 04:26:50 10° E
Meteor 2-2 Rocket 4.2 04:14:14 10° NNW 04:19:57 86° W 04:25:44 10° S
Cosmos 2237 Rocket 4.4 04:18:57 10° N 04:22:33 17° NNE 04:26:08 10° ENE
Cosmos 1892 Rocket 3.4 04:19:36 10° SSW 04:23:57 64° WNW 04:28:21 10° N
NOSS 3-4 (A) 4.4 04:23:03 25° NW 04:24:31 27° NNW 04:29:57 10° NE
NOSS 3-4 (C) 4.4 04:23:12 25° NW 04:24:41 27° NNW 04:30:07 10° NE
Cosmos-2242 2.8 04:24:04 24° NNW 04:26:35 76° W 04:30:47 10° S
Cosmos 220 Rocket 4.2 04:29:35 41° NW 04:29:35 41° NW 04:33:18 10° NNE
Cosmos 2219 Rocket 2.6 04:25:49 16° NNW 04:30:25 63° ENE 04:36:00 10° SE
COSMO-SKYMED 1 2.6 04:27:25 10° S 04:31:25 50° W 04:32:40 36° NW
IRS-1D 3.5 04:27:46 10° N 04:32:39 55° WNW 04:37:35 10° SW
Cosmos 2195 Rocket 4.5 04:27:29 10° SSW 04:33:41 60° WNW 04:39:58 10° N
Meteor 2-20 4.5 04:28:59 10° NNW 04:34:56 55° W 04:40:49 10° SSW
Cosmos 2322 Rocket 2.1 04:32:25 21° NW 04:36:16 72° WSW 04:41:54 10° SSE
Meteor 2-6 Rocket 4.4 04:36:41 10° NNW 04:42:41 84° ENE 04:48:38 10° SSE
ATLAS 2AS CENTAUR R/B 4.2 04:41:03 10° S 04:47:29 39° ESE 04:53:45 10° NE
Orbus 7S? 2.3 04:48:21 44° WNW 04:49:02 76° SSW 04:51:48 10° SE
Cosmos 1812 Rocket 4.1 04:45:30 10° N 04:49:47 58° ENE 04:54:03 10° SSE
IGS 5A 3.3 04:47:46 10° NNE 04:51:49 87° ESE 04:55:49 10° SSW
BREEZE M DEB (TANK) 4.2 04:50:47 10° SSW 04:52:55 25° SE 04:56:36 10° E
Cosmos 2333 4.2 04:49:17 15° NNW 04:54:06 73° WSW 04:59:45 10° SSE
Meteor 1-26 Rocket 4.5 04:49:37 10° NNW 04:54:52 46° W 05:00:15 10° SSW
Cosmos 1484 Rocket 2.3 04:51:36 10° N 04:55:01 69° WNW 04:58:23 10° SSW
Meteor 2-3 Rocket 4.1 04:49:50 10° SW 04:55:12 40° WNW 05:00:33 10° N
BREEZE-M DEB (TANK) 2.6 04:55:04 28° SW 04:55:19 30° SSW 04:57:18 10° SE
SL-08 ROCKET BODY 4.4 04:49:40 10° S 04:55:30 82° E 05:01:23 10° N
Meteor 2-20 Rocket 4.4 04:51:08 10° NNW 04:56:42 51° W 05:02:10 10° SSW
Cosmos 2058 Rocket 3.6 04:54:41 17° NNW 04:57:32 36° W 05:01:33 10° SSW
Cosmos 1602 Rocket 4.4 04:53:32 10° S 04:57:51 55° E 05:02:13 10° NNE
Cosmos 1437 Rocket 3.3 04:55:31 10° N 04:58:55 50° ENE 05:02:16 10° SSE
ARIANE 5 R/B 3.9 04:55:50 10° NNE 05:00:50 44° E 05:05:48 10° S
COSMOS 2406 3.6 04:56:21 10° WSW 05:01:40 40° NW 05:07:00 10° NNE
NOSS 3-1 (A) 4.4 04:57:15 18° NW 05:02:38 50° WSW 05:11:03 10° SSE
SL-16 R/B 3.1 05:01:03 19° WNW 05:03:48 28° WSW 05:08:31 10° SSW
CZ-4 R/B 4.4 05:01:54 10° N 05:05:59 31° WNW 05:10:02 10° SW
SeaSat 1 4.2 05:04:28 10° N 05:06:54 14° NNW 05:07:30 14° NW
COSMOS 2428 3.5 05:01:54 10° NNW 05:07:27 48° NE 05:12:56 10° SE
Cosmos 1743 2.3 05:04:15 10° S 05:07:29 80° E 05:10:45 10° NNE
Cosmos 2082 Rocket 3.2 05:05:01 18° WNW 05:07:38 25° NW 05:12:12 10° NNE
USA 234 3.6 05:03:59 10° E 05:10:22 57° NNE 05:15:57 14° WNW
ATLAS 5 CENTAUR R/B 3.2 05:10:38 11° NNW 05:11:43 12° N 05:13:10 10° NNE
IRIDIUM 104 4.3 05:06:40 10° SSW 05:11:50 65° W 05:17:03 10° N
Okean 1 4.1 05:11:24 19° NW 05:12:48 24° W 05:15:44 10° SW
BREEZE-M DEB (TANK) 2.4 05:12:02 17° W 05:13:59 75° S 05:16:13 10° E
CZ-2C R/B 4.5 05:12:59 10° NNW 05:13:15 10° NW 05:13:15 10° NW
Helios 1A Rocket 4.2 05:13:58 10° SW 05:15:55 15° W 05:15:55 15° W
Cosmos 1814 Rocket 4.0 05:12:33 10° SW 05:17:45 66° WNW 05:23:04 10° NNE
MOS 1 Rocket 4.2 05:14:33 10° NNE 05:19:54 61° E 05:25:08 10° S
CBERS-1 4.0 05:15:25 10° N 05:20:29 67° WNW 05:25:31 10° SSW
IRIDIUM 114 4.4 05:15:54 10° SSW 05:21:01 54° W 05:26:09 10° N
Meteor 1-27 Rocket 4.3 05:15:45 10° N 05:21:34 61° ENE 05:27:15 10° SSE
Cosmos 2285 Rocket 4.3 05:17:43 10° NNW 05:23:46 47° WSW 05:29:50 10° S
BREEZE-M DEB (TANK) 3.2 05:23:26 14° W 05:25:48 77° S 05:32:29 10° E
USA 229 4.2 05:20:07 10° NW 05:27:22 73° NE 05:35:26 10° SE
USA 229 DEB 4.2 05:20:12 10° NW 05:27:27 73° NE 05:35:31 10° SE
BREEZE-M DEB (TANK) 4.3 05:24:40 10° WSW 05:27:50 34° S 05:35:24 10° SE
SAR-Lupe-4 3.6 05:27:06 10° NNE 05:30:40 83° ESE 05:34:13 10° SSW
SL-4 R/B 2.5 05:28:33 13° W 05:31:06 32° SSW 05:33:59 10° SE
Cosmos 1825 Rocket 4.2 05:27:09 10° S 05:31:30 61° E 05:35:52 10° NNE
Cosmos 2151 2.8 05:28:05 10° SSW 05:32:09 72° W 05:36:17 10° N
CORIOLIS 4.1 05:27:04 10° NNE 05:32:28 80° WNW 05:37:51 10° SSW
Cosmos 1758 Rocket 3.9 05:29:50 10° SSW 05:34:04 44° WNW 05:38:17 10° N
CZ-2D R/B 2.6 05:31:09 10° N 05:34:20 75° WNW 05:37:29 10° SSW
Cosmos 2221 2.7 05:31:18 10° NNW 05:35:18 47° W 05:39:16 10° SSW
Meteor 1-20 Rocket 4.3 05:29:43 10° S 05:35:22 83° E 05:40:57 10° NNE
Thor Agena Rocket 3.5 05:33:37 10° N 05:38:40 67° WNW 05:43:38 10° SSW
Cosmos 2315 Rocket 4.1 05:32:43 10° N 05:39:08 89° WSW 05:45:27 10° S
SAR-Lupe-1 4.1 05:36:37 10° NNE 05:40:15 89° WNW 05:43:51 10° SSW
Cosmos 1238 Rocket 1.9 05:39:27 10° N 05:42:19 88° W 05:45:10 10° S
Cosmos 405 Rocket 3.4 05:41:12 10° SW 05:43:55 24° WNW 05:46:39 10° NNW
SL-16 R/B 4.1 05:40:31 10° N 05:44:34 20° NE 05:48:37 10° E
Cosmos 1707 2.5 05:42:56 10° NNW 05:45:58 43° W 05:48:57 10° SSW
Meteor 2-4 Rocket 4.1 05:41:21 10° N 05:46:44 64° ENE 05:52:11 10° SSE
YAOGAN 1 3.9 05:45:42 10° NNE 05:49:48 44° E 05:53:52 10° S
Cosmos 158 Rocket 4.3 05:44:54 10° SW 05:49:59 45° WNW 05:55:00 10° NNE
Cosmos 1655 Rocket 4.3 05:45:31 10° S 05:51:50 76° E 05:58:09 10° NNE
KORONAS-FOTON 4.1 05:50:23 10° NNW 05:53:32 37° W 05:56:40 10° SSW
Cosmos 1980 4.5 05:49:41 10° NNW 05:55:15 51° NE 06:00:47 10° SE
IRS-1C 4.1 05:50:28 10° NNE 05:55:48 74° WNW 06:01:07 10° SSW
S3M 4.1 05:50:03 10° NNW 05:56:05 54° W 06:02:00 10° SSW
Cosmos 2360 Rocket 3.5 05:52:08 10° NW 05:56:17 22° W 06:00:25 10° SSW
